Probability
0 0 0 0 0 0 0 0 1 1 0 0 1 2 6 9 7 5 6 15 26 27 22 22 21 16 11 8 8 7 6 6 6 4 3 3 3 3 2 1 1 2 1 0 0 0 0 0 0
0 0 0 0 0 0 0 1 3 3 1 0 2 5 7 8 7 6 10 19 26 25 21 21 22 18 13 10 9 8 7 6 5 4 3 3 3 3 2 1 1 2 2 1 0 0 0 0 0
0 0 0 0 0 0 0 2 5 5 3 2 3 7 9 9 8 8 13 20 22 20 19 22 24 20 15 12 10 8 7 6 5 5 4 3 3 3 1 0 1 2 3 2 1 0 0 0 0
0 0 0 0 0 0 1 3 5 5 4 3 6 12 14 12 10 11 14 16 18 19 19 22 25 22 17 14 11 10 9 8 7 6 5 5 4 3 1 0 0 1 3 3 2 1 0 0 0
0 0 0 0 0 0 2 4 4 3 3 5 11 21 23 16 12 13 12 12 19 24 23 23 26 24 20 17 14 14 13 12 10 9 8 7 7 5 2 1 0 1 2 3 3 2 1 0 0
0 0 0 0 0 1 3 4 3 3 4 7 15 28 32 22 15 13 10 12 22 29 26 24 25 24 22 20 19 20 20 18 15 14 13 10 9 7 4 2 1 1 3 3 3 3 2 1 0
0 0 0 0 0 1 2 2 3 6 9 10 17 29 34 29 22 15 12 16 26 33 27 21 22 22 22 22 24 25 25 23 22 20 16 11 8 6 4 3 3 3 3 3 3 3 3 2 1
0 0 0 0 0 1 2 3 5 10 13 13 17 28 36 34 27 21 18 24 36 39 30 21 20 20 20 22 25 27 27 26 24 22 17 11 7 5 4 3 3 4 3 3 2 2 3 2 3
0 0 0 0 0 1 3 4 6 9 11 13 19 31 40 37 31 27 27 34 45 46 36 27 23 21 19 21 25 27 26 24 22 20 17 12 7 4 4 7 9 9 7 6 4 3 3 3 4
0 0 0 0 0 1 2 4 4 5 7 13 24 37 43 39 34 32 33 41 51 50 42 35 31 26 23 27 31 28 24 22 19 18 18 14 10 8 10 18 23 19 13 10 10 9 6 4 4
0 0 0 0 0 0 1 3 4 5 8 16 30 40 42 39 35 33 36 45 53 52 45 41 40 36 34 39 39 29 26 27 24 23 24 21 18 18 22 30 32 24 16 14 16 16 11 5 3
0 0 0 0 0 0 1 3 6 7 10 19 30 38 40 38 37 39 42 49 54 54 50 48 50 49 49 53 48 35 34 37 36 36 37 32 29 29 33 37 35 25 18 17 17 18 14 8 5
0 0 0 0 0 0 1 3 7 9 10 16 26 33 36 40 46 51 54 57 60 60 56 55 58 62 65 66 59 47 46 49 50 53 51 43 39 40 41 42 38 27 22 21 20 19 18 15 12
0 0 0 0 0 0 1 3 6 9 10 14 23 29 35 44 55 63 64 66 69 69 65 61 64 71 73 71 67 61 58 59 61 61 57 51 49 48 48 47 42 33 28 28 27 25 24 21 18
0 0 0 0 0 1 1 2 6 9 10 13 19 26 35 46 58 66 67 69 72 75 71 66 68 74 75 69 67 66 64 65 66 64 60 57 53 51 49 48 43 36 32 32 32 29 26 22 19
0 0 0 0 0 1 2 3 7 10 10 12 17 24 34 45 55 62 64 67 72 76 75 71 71 75 73 68 66 65 65 66 68 68 65 59 52 47 45 44 41 37 34 30 28 27 24 19 18
0 0 0 0 0 1 2 4 8 11 10 12 17 25 34 42 50 58 63 67 72 75 75 75 74 74 70 67 67 66 65 67 68 68 65 57 47 40 39 39 38 36 33 26 23 24 22 19 17
0 0 0 0 0 0 1 3 7 11 12 14 18 27 36 41 48 56 62 66 70 72 73 74 73 71 67 65 65 66 67 66 66 64 58 49 39 31 30 32 34 32 29 25 21 19 18 16 14
0 0 0 0 0 0 0 1 6 11 13 16 20 27 35 41 48 56 60 63 66 69 68 68 68 66 64 62 62 64 65 62 60 57 50 41 32 26 23 26 29 27 26 25 21 16 13 12 11
0 0 0 0 0 0 0 1 6 11 13 17 22 27 33 41 48 53 55 56 58 61 62 61 63 63 61 61 61 61 60 55 52 50 46 38 30 25 23 26 26 25 26 25 21 16 13 12 10
0 0 0 0 0 0 0 2 8 13 15 19 22 25 29 37 43 47 48 46 45 49 54 56 58 58 57 57 57 57 55 50 45 44 43 37 31 27 26 27 26 26 26 25 21 18 16 14 12
0 0 0 0 0 0 0 2 8 15 20 22 21 21 25 31 37 40 41 39 36 40 46 50 51 51 49 48 48 49 48 44 39 38 38 36 31 29 27 25 25 24 24 24 22 19 17 14 12
0 0 0 0 0 0 0 2 7 14 21 23 20 20 25 29 33 36 37 36 34 36 39 42 44 43 42 41 41 41 40 38 35 32 31 30 29 26 23 22 21 20 21 23 24 20 15 12 10
0 0 0 0 0 0 0 2 7 12 17 19 19 22 27 30 33 36 37 35 33 33 34 36 39 40 40 39 39 37 35 33 31 28 25 24 22 20 19 18 17 17 18 20 21 17 13 10 9
0 0 0 0 0 0 0 2 7 11 13 16 19 23 28 30 31 33 35 35 33 33 34 36 39 40 40 39 39 36 33 29 27 25 23 20 18 16 16 15 13 13 14 16 16 14 11 9 8
0 0 0 0 0 0 0 3 8 10 11 15 19 22 27 29 28 28 30 31 31 32 35 38 38 38 38 38 37 35 30 26 25 25 22 20 19 17 16 14 11 10 11 11 12 11 10 8 6
0 0 0 0 0 0 0 3 7 7 8 12 17 20 24 26 25 24 25 27 27 27 32 36 36 35 35 35 34 32 29 26 25 25 23 22 21 19 17 14 11 9 8 7 7 7 7 6 3
0 0 0 0 0 0 0 2 4 5 5 10 16 21 24 24 21 19 22 25 25 24 29 33 34 34 33 31 30 30 28 26 25 24 23 23 22 20 17 14 11 7 3 2 2 2 3 3 1
0 0 0 0 0 0 0 1 3 5 7 11 19 24 24 22 19 16 20 25 26 25 27 30 33 33 31 27 26 27 26 26 25 25 23 22 21 18 16 13 9 3 0 0 0 0 1 1 0
0 0 0 0 0 0 0 1 4 7 9 13 21 25 25 23 19 16 19 25 28 27 27 29 32 32 28 24 22 24 26 26 26 25 23 22 19 16 14 12 6 2 0 0 0 0 0 0 0
Wind_Speed
10 12 10 8 7 8 10 4 7 9 9 10 9 9 13 14 10 10 10 15 21 19 16 15 13 13 12 12 12 12 12 11 10 9 9 8 8 8 7 7 7 7 6 6 6 6 6 6 6
11 13 10 7 8 9 6 3 9 10 10 8 7 9 12 13 11 11 11 16 20 18 15 14 14 13 12 12 12 12 12 11 10 9 9 8 7 7 6 6 6 6 5 5 5 5 5 5 5
12 15 8 8 10 8 3 6 9 10 8 6 7 9 10 9 8 10 13 16 18 17 16 15 14 13 12 12 12 12 12 11 10 9 8 8 7 6 5 5 5 5 5 4 4 5 4 4 3
9 8 8 9 10 6 1 5 6 6 7 7 7 9 10 7 7 12 14 15 17 18 17 16 14 14 13 12 12 12 11 11 10 9 8 7 7 6 5 5 4 4 4 4 4 4 3 3 2
9 8 11 11 10 4 3 4 4 1 5 6 7 9 9 7 11 14 13 14 16 18 17 16 15 14 13 13 12 11 11 10 9 9 8 7 6 6 5 4 4 4 3 3 3 2 2 1 0
8 8 11 11 9 4 5 4 3 1 3 6 9 11 9 9 11 13 13 12 15 18 17 15 15 14 13 13 12 11 10 10 9 8 7 7 6 5 5 4 4 4 3 3 3 2 2 2 2
10 11 13 13 7 3 5 3 2 1 1 4 5 8 9 10 11 11 12 11 15 18 17 13 13 12 12 12 11 11 10 9 9 8 7 7 6 6 6 5 5 4 4 4 4 4 4 3 4
11 11 16 12 8 3 6 2 1 3 2 5 3 5 9 11 11 11 11 11 14 16 15 13 13 12 11 10 11 11 11 10 9 8 8 7 7 7 7 7 6 6 5 5 5 5 5 5 6
13 12 13 10 4 1 4 1 1 3 2 4 4 6 15 16 14 11 10 9 11 12 12 11 12 11 11 11 11 11 10 9 9 8 8 7 6 7 7 8 9 8 7 6 6 6 7 7 9
10 11 10 7 6 5 2 2 2 3 4 4 6 12 17 15 13 12 11 11 11 11 11 10 11 10 10 9 9 7 8 8 7 6 7 6 5 4 6 9 11 10 9 8 9 9 8 8 6
9 11 9 6 4 3 5 6 4 3 3 4 7 12 12 13 12 11 11 10 10 11 9 9 8 7 7 6 7 5 4 6 6 6 6 4 3 2 2 3 5 6 7 6 6 7 6 6 5
8 9 9 6 5 3 5 7 4 2 1 6 9 11 9 11 12 11 10 9 9 10 9 8 8 6 5 6 5 4 4 4 4 4 4 3 2 1 1 2 3 4 3 4 3 3 5 5 5
10 9 8 6 6 6 6 5 4 4 3 7 11 12 10 9 9 9 8 8 8 8 8 7 6 5 3 3 2 3 2 3 3 3 3 2 1 1 1 1 1 2 2 2 2 3 2 3 3
9 9 8 8 8 7 7 7 7 6 3 4 8 9 10 9 9 9 8 7 7 7 6 5 5 6 4 3 2 1 2 2 2 2 3 2 1 0 1 1 1 1 2 1 1 2 2 2 2
8 11 12 12 11 9 9 10 8 6 5 6 6 8 8 9 9 8 8 7 7 7 6 5 5 5 4 3 3 2 2 2 2 2 2 1 1 1 1 1 1 2 2 2 1 2 2 2 3
12 14 14 13 12 10 10 10 6 7 7 7 6 7 8 7 8 8 9 8 7 7 6 5 5 6 5 3 3 2 2 2 2 2 2 1 0 0 1 1 1 1 2 1 2 2 2 2 2
13 14 14 10 8 7 10 9 5 4 5 6 7 7 8 7 6 7 8 8 7 7 6 5 4 5 5 4 3 2 2 2 2 2 2 1 1 1 2 1 0 1 1 1 2 1 1 2 2
10 12 12 9 5 7 10 8 6 6 8 7 8 8 7 8 8 6 5 7 7 6 6 5 4 4 4 4 3 2 2 2 2 2 2 2 1 1 2 2 1 1 1 1 1 2 2 2 3
12 12 14 11 7 9 10 10 8 8 9 8 8 7 7 7 9 8 6 6 7 6 5 5 5 4 3 3 3 3 3 2 2 2 3 3 2 1 1 1 1 1 1 1 1 1 3 3 2
12 13 13 10 8 9 11 13 10 9 10 7 6 6 7 6 6 8 7 5 5 5 5 4 4 5 4 3 2 3 3 2 2 2 3 2 2 1 1 1 1 0 0 1 1 1 2 3 2
12 12 12 12 11 11 13 14 11 7 7 5 4 4 5 6 6 7 7 5 3 3 4 4 4 4 3 3 2 2 2 1 1 2 2 2 1 1 0 0 1 1 1 1 1 2 3 3 3
10 11 14 13 13 11 12 12 9 8 6 5 4 4 4 4 6 8 7 6 5 3 3 4 4 4 4 3 3 3 3 2 2 1 2 1 1 2 1 1 0 1 1 1 2 1 2 3 3
11 12 14 15 14 15 13 12 9 6 3 3 3 4 5 5 6 9 8 7 6 5 4 4 5 5 4 4 4 3 2 2 2 2 2 1 1 1 1 1 0 1 2 2 2 2 3 2 3
11 12 14 14 11 14 10 9 9 4 2 3 3 2 4 4 5 8 8 7 6 5 5 6 6 5 4 4 4 3 3 2 2 2 1 0 0 0 0 0 0 1 2 2 2 2 3 2 3
10 10 8 8 7 10 9 7 4 1 2 3 4 4 3 4 5 7 8 8 7 6 5 5 6 6 5 5 3 3 3 2 2 1 1 1 0 0 1 1 1 2 2 2 2 2 3 3 3
9 9 8 9 11 11 10 7 1 4 5 4 4 5 4 4 4 5 6 7 7 7 5 5 6 6 5 5 4 3 2 1 1 1 1 1 1 1 0 0 2 3 3 3 2 2 2 2 3
9 9 10 11 14 13 7 6 2 5 5 4 3 4 4 4 4 4 5 6 6 5 5 5 6 6 5 5 4 3 3 2 1 1 1 0 1 1 0 0 1 2 2 3 3 2 3 3 2
8 9 7 7 8 11 9 6 3 2 3 3 2 3 4 4 3 3 3 5 5 5 5 6 6 5 4 3 4 3 3 2 2 1 1 1 0 1 1 1 1 1 1 2 2 2 2 3 2
9 10 9 7 7 8 9 5 4 3 2 2 1 4 4 3 3 3 3 4 5 5 6 6 5 4 4 3 3 3 3 3 3 2 1 1 0 0 1 1 1 2 2 2 2 3 2 3 3
8 10 9 8 9 10 9 5 2 2 2 2 3 4 4 4 3 3 3 4 4 4 4 4 4 4 4 3 3 3 2 2 2 1 0 0 0 1 1 1 1 1 1 2 2 3 3 3 3
Wind_Direction
261 255 246 251 242 240 251 241 98 86 77 70 56 62 64 55 63 97 122 117 111 117 123 122 122 125 129 133 135 136 136 135 133 130 126 122 117 114 110 105 102 100 99 99 98 97 94 92 90
269 259 244 244 247 249 245 152 94 87 88 89 81 75 74 68 73 103 118 115 117 123 131 125 124 125 129 133 134 136 138 138 136 134 131 129 125 121 118 114 110 107 105 105 103 100 96 92 91
262 261 256 244 247 262 312 84 94 95 107 107 88 74 73 84 96 113 121 126 122 128 124 122 127 127 130 134 135 138 139 140 139 138 136 135 133 130 127 124 119 116 115 113 110 105 101 98 93
256 231 238 248 253 254 343 78 85 109 118 116 102 91 84 84 109 123 132 136 129 127 123 128 130 130 132 136 139 140 141 141 141 142 141 142 141 139 138 134 131 130 130 130 122 113 108 108 102
241 252 242 252 250 235 108 92 92 144 125 119 108 101 99 100 113 126 143 139 132 125 126 132 132 133 135 138 141 141 142 142 143 144 144 147 149 149 149 149 149 150 147 147 143 133 133 147 199
242 243 252 256 246 181 135 115 135 193 137 132 124 113 106 120 125 138 147 144 132 125 126 132 136 137 139 141 143 143 142 144 145 146 149 152 154 160 164 169 173 175 176 175 172 172 181 206 248
255 270 272 273 271 208 125 110 195 162 130 98 113 110 123 134 136 146 145 141 128 125 129 140 142 143 144 145 146 146 145 147 148 150 155 159 166 174 181 185 189 190 190 193 197 204 211 223 244
255 279 282 273 263 229 117 136 191 130 93 62 82 121 134 140 145 147 147 141 131 130 136 145 150 151 155 154 154 155 155 156 158 160 168 177 185 193 197 195 194 197 204 212 218 225 228 235 245
253 263 274 282 289 43 100 127 166 111 95 88 67 99 132 144 150 152 150 145 136 133 138 147 152 156 164 161 159 161 163 167 169 176 186 193 204 203 200 206 183 196 208 215 222 231 236 241 243
243 262 281 337 359 352 4 283 230 176 166 140 106 105 129 144 153 159 161 160 149 141 146 154 157 163 170 161 153 170 176 170 189 186 184 201 220 215 200 179 179 194 208 218 225 232 240 242 244
252 270 304 331 338 325 304 273 267 242 214 163 138 128 143 151 158 168 170 166 153 150 153 158 156 160 162 144 155 178 183 166 196 196 186 203 222 218 168 154 169 196 212 222 220 223 232 235 237
258 279 293 302 312 280 261 273 295 315 223 106 114 135 160 162 167 174 171 165 151 152 158 157 154 159 164 152 165 177 177 164 183 178 186 201 215 237 166 171 175 203 210 216 216 219 227 243 250
261 258 261 271 271 268 264 264 279 268 197 137 141 146 163 174 173 168 163 159 153 153 157 158 152 150 143 134 165 165 157 155 166 149 170 212 207 253 257 238 226 245 239 216 222 240 255 263 275
287 292 282 270 261 257 257 247 237 242 216 165 157 155 168 175 173 167 160 154 150 147 151 152 148 144 142 141 139 127 137 126 134 131 155 199 196 240 272 237 250 283 279 260 239 261 259 258 277
279 275 264 252 246 243 253 251 233 227 218 196 181 171 166 172 177 169 159 153 149 143 145 145 151 144 151 155 157 145 143 138 135 132 145 173 211 256 264 256 241 262 279 278 266 266 261 262 260
258 254 255 246 231 226 236 255 234 220 215 208 192 184 167 172 177 168 161 154 151 147 147 156 168 149 148 150 154 152 140 131 137 134 134 139 201 284 266 250 251 275 274 266 260 251 274 275 279
250 252 258 255 230 234 242 256 243 232 217 208 206 201 175 167 177 169 163 154 149 142 143 148 150 150 152 153 154 159 147 146 138 129 121 132 177 264 271 246 224 276 290 289 284 311 287 288 287
295 302 291 282 271 269 262 261 239 229 225 217 214 203 187 171 168 164 154 145 138 138 141 148 151 141 148 151 157 162 162 151 135 129 130 145 170 217 266 244 216 269 273 286 309 319 297 276 267
301 294 293 296 287 279 277 271 258 244 236 224 217 207 181 180 159 152 145 138 133 136 147 152 156 148 155 160 177 173 179 177 165 156 150 149 165 203 248 297 270 268 263 261 275 294 288 276 269
289 287 288 292 301 293 283 275 259 253 247 228 207 204 179 174 144 141 140 142 142 151 153 159 161 161 171 173 176 170 162 181 161 141 139 151 170 200 224 184 278 332 286 273 277 292 281 280 273
283 290 299 304 300 284 281 278 268 254 247 219 209 206 178 170 153 137 139 143 131 152 161 162 160 160 165 149 145 143 129 128 132 134 143 150 175 190 234 217 272 317 293 274 283 272 277 282 281
295 307 303 297 293 286 278 277 268 250 224 205 207 202 183 158 140 140 146 157 154 176 156 134 136 139 135 135 134 142 147 144 130 128 123 134 209 196 189 223 249 288 295 297 293 319 296 285 289
300 301 297 291 284 279 272 275 280 248 221 198 213 200 173 160 151 146 152 157 155 160 153 137 124 120 115 116 114 118 123 121 118 121 125 167 230 216 190 187 276 300 302 318 317 314 295 293 293
297 297 292 286 279 273 280 283 278 284 198 188 174 159 143 139 134 138 142 144 143 145 149 144 132 130 130 125 124 124 120 114 118 121 118 118 277 276 9 215 23 325 311 311 303 293 287 290 298
304 297 298 303 289 282 302 290 284 46 82 126 140 135 121 130 136 135 142 148 147 141 139 144 141 143 146 145 143 135 137 149 150 154 151 172 271 332 18 8 350 318 299 290 288 290 289 284 285
294 289 292 302 299 305 307 287 347 79 57 65 99 106 105 116 124 135 143 147 148 150 151 157 152 150 154 154 155 152 160 165 151 166 197 205 242 254 200 332 308 305 305 312 320 297 286 279 279
289 293 300 292 288 287 283 285 95 65 68 51 66 100 111 108 115 129 146 137 140 154 158 152 147 149 159 162 164 168 165 160 164 197 220 207 228 251 127 303 292 306 320 323 318 309 309 296 283
286 297 298 289 298 299 298 303 3 25 51 44 10 80 84 100 113 114 122 133 138 147 147 142 149 152 155 168 180 165 159 166 191 193 207 234 301 348 310 267 285 296 297 297 299 308 318 317 308
299 295 294 294 291 295 299 322 1 6 37 78 47 77 93 91 101 119 136 130 132 136 139 145 154 158 163 186 186 166 169 187 196 198 189 156 121 300 290 300 296 294 300 306 313 313 308 312 322
295 292 293 290 291 290 291 290 345 330 19 73 90 87 90 101 103 102 117 119 122 127 137 145 160 168 177 183 171 171 179 178 176 152 119 87 336 301 307 308 321 316 327 336 325 313 327 328 326